Year,Month,Day,Hour,Minute,Value (Times are PST for windgust in km/hr)
2010,04,05,00,00,16.10
2010,04,05,00,01,14.50
2010,04,05,00,02,24.20
2010,04,05,00,03,22.50
2010,04,05,00,04,16.10
2010,04,05,00,05,16.10
2010,04,05,00,06,20.90
2010,04,05,00,07,20.90
2010,04,05,00,08,19.30
2010,04,05,00,09,16.10
2010,04,05,00,10,14.50
2010,04,05,00,11,14.50
2010,04,05,00,12,14.50
2010,04,05,00,13,9.60
2010,04,05,00,14,22.50
2010,04,05,00,15,12.90
2010,04,05,00,16,14.50
2010,04,05,00,17,20.90
2010,04,05,00,18,17.70
2010,04,05,00,19,14.50
2010,04,05,00,20,19.30
2010,04,05,00,21,25.70
2010,04,05,00,22,25.70
2010,04,05,00,23,33.80
2010,04,05,00,24,22.50
2010,04,05,00,25,24.20
2010,04,05,00,26,25.70
2010,04,05,00,27,22.50
2010,04,05,00,28,24.20
2010,04,05,00,29,20.90
2010,04,05,00,30,19.30
2010,04,05,00,31,24.20
2010,04,05,00,32,24.20
2010,04,05,00,33,20.90
2010,04,05,00,34,16.10
2010,04,05,00,35,14.50
2010,04,05,00,36,20.90
2010,04,05,00,37,19.30
2010,04,05,00,38,19.30
2010,04,05,00,39,16.10
2010,04,05,00,40,12.90
2010,04,05,00,41,24.20
2010,04,05,00,42,25.70
2010,04,05,00,43,20.90
2010,04,05,00,44,27.40
2010,04,05,00,45,27.40
2010,04,05,00,46,19.30
2010,04,05,00,47,20.90
2010,04,05,00,48,27.40
2010,04,05,00,49,16.10
2010,04,05,00,50,25.70
2010,04,05,00,51,19.30
2010,04,05,00,52,24.20
2010,04,05,00,53,27.40
2010,04,05,00,54,27.40
2010,04,05,00,55,27.40
2010,04,05,00,56,22.50
2010,04,05,00,57,19.30
2010,04,05,00,58,29.00
2010,04,05,00,59,30.60
2010,04,05,01,00,29.00
2010,04,05,01,01,27.40
2010,04,05,01,02,32.20
2010,04,05,01,03,27.40
2010,04,05,01,04,22.50
2010,04,05,01,05,24.20
2010,04,05,01,06,19.30
2010,04,05,01,07,20.90
2010,04,05,01,08,24.20
2010,04,05,01,09,16.10
2010,04,05,01,10,20.90
2010,04,05,01,11,16.10
2010,04,05,01,12,24.20
2010,04,05,01,13,27.40
2010,04,05,01,14,27.40
2010,04,05,01,15,22.50
2010,04,05,01,16,20.90
2010,04,05,01,17,29.00
2010,04,05,01,18,20.90
2010,04,05,01,19,22.50
2010,04,05,01,20,17.70
2010,04,05,01,21,20.90
2010,04,05,01,22,30.60
2010,04,05,01,23,22.50
2010,04,05,01,24,32.20
2010,04,05,01,25,25.70
2010,04,05,01,26,29.00
2010,04,05,01,27,30.60
2010,04,05,01,28,24.20
2010,04,05,01,29,16.10
2010,04,05,01,30,25.70
2010,04,05,01,31,29.00
2010,04,05,01,32,22.50
2010,04,05,01,33,19.30
2010,04,05,01,34,17.70
2010,04,05,01,35,27.40
2010,04,05,01,36,33.80
2010,04,05,01,37,24.20
2010,04,05,01,38,35.40
2010,04,05,01,39,25.70
2010,04,05,01,40,29.00
2010,04,05,01,41,32.20
2010,04,05,01,42,19.30
2010,04,05,01,43,30.60
2010,04,05,01,44,32.20
2010,04,05,01,45,30.60
2010,04,05,01,46,30.60
2010,04,05,01,47,27.40
2010,04,05,01,48,24.20
2010,04,05,01,49,20.90
2010,04,05,01,50,25.70
2010,04,05,01,51,35.40
2010,04,05,01,52,30.60
2010,04,05,01,53,37.00
2010,04,05,01,54,24.20
2010,04,05,01,55,32.20
2010,04,05,01,56,30.60
2010,04,05,01,57,32.20
2010,04,05,01,58,35.40
2010,04,05,01,59,20.90
2010,04,05,02,00,29.00
2010,04,05,02,01,27.40
2010,04,05,02,02,25.70
2010,04,05,02,03,27.40
2010,04,05,02,04,29.00
2010,04,05,02,05,27.40
2010,04,05,02,06,29.00
2010,04,05,02,07,25.70
2010,04,05,02,08,27.40
2010,04,05,02,09,29.00
2010,04,05,02,10,24.20
2010,04,05,02,11,30.60
2010,04,05,02,12,35.40
2010,04,05,02,13,32.20
2010,04,05,02,14,41.80
2010,04,05,02,15,33.80
2010,04,05,02,16,37.00
2010,04,05,02,17,29.00
2010,04,05,02,18,27.40
2010,04,05,02,19,25.70
2010,04,05,02,20,27.40
2010,04,05,02,21,19.30
2010,04,05,02,22,22.50
2010,04,05,02,23,20.90
2010,04,05,02,24,29.00
2010,04,05,02,25,32.20
2010,04,05,02,26,33.80
2010,04,05,02,27,33.80
2010,04,05,02,28,30.60
2010,04,05,02,29,17.70
2010,04,05,02,30,25.70
2010,04,05,02,31,27.40
2010,04,05,02,32,22.50
2010,04,05,02,33,29.00
2010,04,05,02,34,24.20
2010,04,05,02,35,25.70
2010,04,05,02,36,29.00
2010,04,05,02,37,30.60
2010,04,05,02,38,27.40
2010,04,05,02,39,35.40
2010,04,05,02,40,30.60
2010,04,05,02,41,29.00
2010,04,05,02,42,33.80
2010,04,05,02,43,27.40
2010,04,05,02,44,33.80
2010,04,05,02,45,27.40
2010,04,05,02,46,33.80
2010,04,05,02,47,33.80
2010,04,05,02,48,29.00
2010,04,05,02,49,33.80
2010,04,05,02,50,30.60
2010,04,05,02,51,22.50
2010,04,05,02,52,22.50
2010,04,05,02,53,38.60
2010,04,05,02,54,30.60
2010,04,05,02,55,24.20
2010,04,05,02,56,35.40
2010,04,05,02,57,33.80
2010,04,05,02,58,27.40
2010,04,05,02,59,22.50
2010,04,05,03,00,33.80
2010,04,05,03,01,30.60
2010,04,05,03,02,30.60
2010,04,05,03,03,30.60
2010,04,05,03,04,35.40
2010,04,05,03,05,22.50
2010,04,05,03,06,24.20
2010,04,05,03,07,22.50
2010,04,05,03,08,24.20
2010,04,05,03,09,29.00
2010,04,05,03,10,20.90
2010,04,05,03,11,27.40
2010,04,05,03,12,32.20
2010,04,05,03,13,35.40
2010,04,05,03,14,30.60
2010,04,05,03,15,24.20
2010,04,05,03,16,27.40
2010,04,05,03,17,40.20
2010,04,05,03,18,35.40
2010,04,05,03,19,33.80
2010,04,05,03,20,29.00
2010,04,05,03,21,30.60
2010,04,05,03,22,35.40
2010,04,05,03,23,33.80
2010,04,05,03,24,27.40
2010,04,05,03,25,27.40
2010,04,05,03,26,32.20
2010,04,05,03,27,29.00
2010,04,05,03,28,30.60
2010,04,05,03,29,20.90
2010,04,05,03,30,27.40
2010,04,05,03,31,38.60
2010,04,05,03,32,30.60
2010,04,05,03,33,30.60
2010,04,05,03,34,35.40
2010,04,05,03,35,37.00
2010,04,05,03,36,30.60
2010,04,05,03,37,32.20
2010,04,05,03,38,24.20
2010,04,05,03,39,32.20
2010,04,05,03,40,35.40
2010,04,05,03,41,29.00
2010,04,05,03,42,33.80
2010,04,05,03,43,35.40
2010,04,05,03,44,38.60
2010,04,05,03,45,40.20
2010,04,05,03,46,38.60
2010,04,05,03,47,29.00
2010,04,05,03,48,24.20
2010,04,05,03,49,35.40
2010,04,05,03,50,32.20
2010,04,05,03,51,27.40
2010,04,05,03,52,29.00
2010,04,05,03,53,32.20
2010,04,05,03,54,43.50
2010,04,05,03,55,25.70
2010,04,05,03,56,25.70
2010,04,05,03,57,20.90
2010,04,05,03,58,27.40
2010,04,05,03,59,20.90
2010,04,05,04,00,29.00
2010,04,05,04,01,25.70
2010,04,05,04,02,33.80
2010,04,05,04,03,38.60
2010,04,05,04,04,27.40
2010,04,05,04,05,32.20
2010,04,05,04,06,33.80
2010,04,05,04,07,25.70
2010,04,05,04,08,25.70
2010,04,05,04,09,32.20
2010,04,05,04,10,29.00
2010,04,05,04,11,27.40
2010,04,05,04,12,25.70
2010,04,05,04,13,38.60
2010,04,05,04,14,30.60
2010,04,05,04,15,29.00
2010,04,05,04,16,25.70
2010,04,05,04,17,29.00
2010,04,05,04,18,25.70
2010,04,05,04,19,24.20
2010,04,05,04,20,22.50
2010,04,05,04,21,32.20
2010,04,05,04,22,29.00
2010,04,05,04,23,29.00
2010,04,05,04,24,29.00
2010,04,05,04,25,30.60
2010,04,05,04,26,35.40
2010,04,05,04,27,29.00
2010,04,05,04,28,22.50
2010,04,05,04,29,29.00
2010,04,05,04,30,20.90
2010,04,05,04,31,29.00
2010,04,05,04,32,30.60
2010,04,05,04,33,30.60
2010,04,05,04,34,19.30
2010,04,05,04,35,19.30
2010,04,05,04,36,25.70
2010,04,05,04,37,24.20
2010,04,05,04,38,27.40
2010,04,05,04,39,17.70
2010,04,05,04,40,27.40
2010,04,05,04,41,22.50
2010,04,05,04,42,25.70
2010,04,05,04,43,32.20
2010,04,05,04,44,27.40
2010,04,05,04,45,27.40
2010,04,05,04,46,17.70
2010,04,05,04,47,22.50
2010,04,05,04,48,25.70
2010,04,05,04,49,24.20
2010,04,05,04,50,29.00
2010,04,05,04,51,25.70
2010,04,05,04,52,24.20
2010,04,05,04,53,43.50
2010,04,05,04,54,33.80
2010,04,05,04,55,25.70
2010,04,05,04,56,20.90
2010,04,05,04,57,19.30
2010,04,05,04,58,24.20
2010,04,05,04,59,35.40
2010,04,05,05,00,29.00
2010,04,05,05,01,30.60
2010,04,05,05,02,25.70
2010,04,05,05,03,35.40
2010,04,05,05,04,35.40
2010,04,05,05,05,27.40
2010,04,05,05,06,24.20
2010,04,05,05,07,29.00
2010,04,05,05,08,30.60
2010,04,05,05,09,30.60
2010,04,05,05,10,20.90
2010,04,05,05,11,27.40
2010,04,05,05,12,27.40
2010,04,05,05,13,17.70
2010,04,05,05,14,33.80
2010,04,05,05,15,22.50
2010,04,05,05,16,35.40
2010,04,05,05,17,22.50
2010,04,05,05,18,24.20
2010,04,05,05,19,45.10
2010,04,05,05,20,32.20
2010,04,05,05,21,30.60
2010,04,05,05,22,30.60
2010,04,05,05,23,20.90
2010,04,05,05,24,30.60
2010,04,05,05,25,19.30
2010,04,05,05,26,27.40
2010,04,05,05,27,24.20
2010,04,05,05,28,32.20
2010,04,05,05,29,25.70
2010,04,05,05,30,25.70
2010,04,05,05,31,29.00
2010,04,05,05,32,22.50
2010,04,05,05,33,32.20
2010,04,05,05,34,30.60
2010,04,05,05,35,29.00
2010,04,05,05,36,25.70
2010,04,05,05,37,20.90
2010,04,05,05,38,22.50
2010,04,05,05,39,30.60
2010,04,05,05,40,27.40
2010,04,05,05,41,32.20
2010,04,05,05,42,25.70
2010,04,05,05,43,22.50
2010,04,05,05,44,24.20
2010,04,05,05,45,29.00
2010,04,05,05,46,30.60
2010,04,05,05,47,27.40
2010,04,05,05,48,25.70
2010,04,05,05,49,29.00
2010,04,05,05,50,22.50
2010,04,05,05,51,25.70
2010,04,05,05,52,27.40
2010,04,05,05,53,27.40
2010,04,05,05,54,35.40
2010,04,05,05,55,33.80
2010,04,05,05,56,25.70
2010,04,05,05,57,24.20
2010,04,05,05,58,22.50
2010,04,05,05,59,20.90
2010,04,05,06,00,19.30
2010,04,05,06,01,24.20
2010,04,05,06,02,24.20
2010,04,05,06,03,22.50
2010,04,05,06,04,29.00
2010,04,05,06,05,25.70
2010,04,05,06,06,25.70
2010,04,05,06,07,19.30
2010,04,05,06,08,22.50
2010,04,05,06,09,24.20
2010,04,05,06,10,25.70
2010,04,05,06,11,27.40
2010,04,05,06,12,29.00
2010,04,05,06,13,25.70
2010,04,05,06,14,29.00
2010,04,05,06,15,22.50
2010,04,05,06,16,24.20
2010,04,05,06,17,20.90
2010,04,05,06,18,33.80
2010,04,05,06,19,24.20
2010,04,05,06,20,20.90
2010,04,05,06,21,30.60
2010,04,05,06,22,32.20
2010,04,05,06,23,20.90
2010,04,05,06,24,22.50
2010,04,05,06,25,22.50
2010,04,05,06,26,22.50
2010,04,05,06,27,25.70
2010,04,05,06,28,24.20
2010,04,05,06,29,29.00
2010,04,05,06,30,22.50
2010,04,05,06,31,19.30
2010,04,05,06,32,22.50
2010,04,05,06,33,20.90
2010,04,05,06,34,24.20
2010,04,05,06,35,19.30
2010,04,05,06,36,25.70
2010,04,05,06,37,20.90
2010,04,05,06,38,25.70
2010,04,05,06,39,20.90
2010,04,05,06,40,22.50
2010,04,05,06,41,24.20
2010,04,05,06,42,20.90
2010,04,05,06,43,22.50
2010,04,05,06,44,17.70
2010,04,05,06,45,20.90
2010,04,05,06,46,24.20
2010,04,05,06,47,22.50
2010,04,05,06,48,24.20
2010,04,05,06,49,25.70
2010,04,05,06,50,25.70
2010,04,05,06,51,24.20
2010,04,05,06,52,20.90
2010,04,05,06,53,19.30
2010,04,05,06,54,11.30
2010,04,05,06,55,16.10
2010,04,05,06,56,20.90
2010,04,05,06,57,17.70
2010,04,05,06,58,16.10
2010,04,05,06,59,19.30
2010,04,05,07,00,17.70
2010,04,05,07,01,19.30
2010,04,05,07,02,19.30
2010,04,05,07,03,16.10
2010,04,05,07,04,20.90
2010,04,05,07,05,16.10
2010,04,05,07,06,17.70
2010,04,05,07,07,16.10
2010,04,05,07,08,25.70
2010,04,05,07,09,19.30
2010,04,05,07,10,19.30
2010,04,05,07,11,14.50
2010,04,05,07,12,17.70
2010,04,05,07,13,17.70
2010,04,05,07,14,14.50
2010,04,05,07,15,22.50
2010,04,05,07,16,17.70
2010,04,05,07,17,17.70
2010,04,05,07,18,14.50
2010,04,05,07,19,14.50
2010,04,05,07,20,16.10
2010,04,05,07,21,16.10
2010,04,05,07,22,16.10
2010,04,05,07,23,25.70
2010,04,05,07,24,24.20
2010,04,05,07,25,22.50
2010,04,05,07,26,24.20
2010,04,05,07,27,19.30
2010,04,05,07,28,17.70
2010,04,05,07,29,17.70
2010,04,05,07,30,16.10
2010,04,05,07,31,20.90
2010,04,05,07,32,19.30
2010,04,05,07,33,22.50
2010,04,05,07,34,22.50
2010,04,05,07,35,20.90
2010,04,05,07,36,16.10
2010,04,05,07,37,16.10
2010,04,05,07,38,11.30
2010,04,05,07,39,16.10
2010,04,05,07,40,22.50
2010,04,05,07,41,20.90
2010,04,05,07,42,14.50
2010,04,05,07,43,22.50
2010,04,05,07,44,17.70
2010,04,05,07,45,16.10
2010,04,05,07,46,20.90
2010,04,05,07,47,14.50
2010,04,05,07,48,14.50
2010,04,05,07,49,19.30
2010,04,05,07,50,14.50
2010,04,05,07,51,17.70
2010,04,05,07,52,16.10
2010,04,05,07,53,14.50
2010,04,05,07,54,16.10
2010,04,05,07,55,17.70
2010,04,05,07,56,14.50
2010,04,05,07,57,16.10
2010,04,05,07,58,11.30
2010,04,05,07,59,8.10
2010,04,05,08,00,17.70
2010,04,05,08,01,17.70
2010,04,05,08,02,17.70
2010,04,05,08,03,19.30
2010,04,05,08,04,19.30
2010,04,05,08,05,20.90
2010,04,05,08,06,19.30
2010,04,05,08,07,17.70
2010,04,05,08,08,14.50
2010,04,05,08,09,16.10
2010,04,05,08,10,19.30
2010,04,05,08,11,19.30
2010,04,05,08,12,14.50
2010,04,05,08,13,14.50
2010,04,05,08,14,12.90
2010,04,05,08,15,11.30
2010,04,05,08,16,11.30
2010,04,05,08,17,9.60
2010,04,05,08,18,17.70
2010,04,05,08,19,12.90
2010,04,05,08,20,9.60
2010,04,05,08,21,8.10
2010,04,05,08,22,9.60
2010,04,05,08,23,9.60
2010,04,05,08,24,6.40
2010,04,05,08,25,8.10
2010,04,05,08,26,6.40
2010,04,05,08,27,11.30
2010,04,05,08,28,14.50
2010,04,05,08,29,14.50
2010,04,05,08,30,11.30
2010,04,05,08,31,11.30
2010,04,05,08,32,16.10
2010,04,05,08,33,9.60
2010,04,05,08,34,12.90
2010,04,05,08,35,16.10
2010,04,05,08,36,9.60
2010,04,05,08,37,9.60
2010,04,05,08,38,8.10
2010,04,05,08,39,8.10
2010,04,05,08,40,9.60
2010,04,05,08,41,11.30
2010,04,05,08,42,4.80
2010,04,05,08,43,11.30
2010,04,05,08,44,8.10
2010,04,05,08,45,9.60
2010,04,05,08,46,8.10
2010,04,05,08,47,8.10
2010,04,05,08,48,6.40
2010,04,05,08,49,6.40
2010,04,05,08,50,8.10
2010,04,05,08,51,8.10
2010,04,05,08,52,8.10
2010,04,05,08,53,6.40
2010,04,05,08,54,6.40
2010,04,05,08,55,6.40
2010,04,05,08,56,4.80
2010,04,05,08,57,14.50
2010,04,05,08,58,9.60
2010,04,05,08,59,9.60
2010,04,05,09,00,4.80
2010,04,05,09,01,8.10
2010,04,05,09,02,8.10
2010,04,05,09,03,6.40
2010,04,05,09,04,8.10
2010,04,05,09,05,6.40
2010,04,05,09,06,16.10
2010,04,05,09,07,14.50
2010,04,05,09,08,14.50
2010,04,05,09,09,19.30
2010,04,05,09,10,9.60
2010,04,05,09,11,11.30
2010,04,05,09,12,16.10
2010,04,05,09,13,16.10
2010,04,05,09,14,17.70
2010,04,05,09,15,16.10
2010,04,05,09,16,17.70
2010,04,05,09,17,14.50
2010,04,05,09,18,19.30
2010,04,05,09,19,17.70
2010,04,05,09,20,17.70
2010,04,05,09,21,16.10
2010,04,05,09,22,8.10
2010,04,05,09,23,17.70
2010,04,05,09,24,14.50
2010,04,05,09,25,17.70
2010,04,05,09,26,19.30
2010,04,05,09,27,20.90
2010,04,05,09,28,17.70
2010,04,05,09,29,11.30
2010,04,05,09,30,16.10
2010,04,05,09,31,14.50
2010,04,05,09,32,16.10
2010,04,05,09,33,14.50
2010,04,05,09,34,11.30
2010,04,05,09,35,19.30
2010,04,05,09,36,16.10
2010,04,05,09,37,14.50
2010,04,05,09,38,12.90
2010,04,05,09,39,17.70
2010,04,05,09,40,17.70
2010,04,05,09,41,16.10
2010,04,05,09,42,17.70
2010,04,05,09,43,16.10
2010,04,05,09,44,17.70
2010,04,05,09,45,17.70
2010,04,05,09,46,19.30
2010,04,05,09,47,14.50
2010,04,05,09,48,17.70
2010,04,05,09,49,16.10
2010,04,05,09,50,17.70
2010,04,05,09,51,16.10
2010,04,05,09,52,11.30
2010,04,05,09,53,16.10
2010,04,05,09,54,14.50
2010,04,05,09,55,16.10
2010,04,05,09,56,11.30
2010,04,05,09,57,9.60
2010,04,05,09,58,14.50
2010,04,05,09,59,19.30
2010,04,05,10,00,11.30
2010,04,05,10,01,14.50
2010,04,05,10,02,16.10
2010,04,05,10,03,12.90
2010,04,05,10,04,11.30
2010,04,05,10,05,17.70
2010,04,05,10,06,14.50
2010,04,05,10,07,16.10
2010,04,05,10,08,14.50
2010,04,05,10,09,16.10
2010,04,05,10,10,16.10
2010,04,05,10,11,11.30
2010,04,05,10,12,9.60
2010,04,05,10,13,8.10
2010,04,05,10,14,6.40
2010,04,05,10,15,4.80
2010,04,05,10,16,14.50
2010,04,05,10,17,17.70
2010,04,05,10,18,11.30
2010,04,05,10,19,16.10
2010,04,05,10,20,14.50
2010,04,05,10,21,11.30
2010,04,05,10,22,6.40
2010,04,05,10,23,3.20
2010,04,05,10,24,6.40
2010,04,05,10,25,8.10
2010,04,05,10,26,3.20
2010,04,05,10,27,8.10
2010,04,05,10,28,6.40
2010,04,05,10,29,8.10
2010,04,05,10,30,9.60
2010,04,05,10,31,11.30
2010,04,05,10,32,8.10
2010,04,05,10,33,6.40
2010,04,05,10,34,1.60
2010,04,05,10,35,9.60
2010,04,05,10,36,9.60
2010,04,05,10,37,11.30
2010,04,05,10,38,11.30
2010,04,05,10,39,8.10
2010,04,05,10,40,8.10
2010,04,05,10,41,8.10
2010,04,05,10,42,3.20
2010,04,05,10,43,4.80
2010,04,05,10,44,6.40
2010,04,05,10,45,8.10
2010,04,05,10,46,9.60
2010,04,05,10,47,8.10
2010,04,05,10,48,4.80
2010,04,05,10,49,4.80
2010,04,05,10,50,3.20
2010,04,05,10,51,1.60
2010,04,05,10,52,8.10
2010,04,05,10,53,6.40
2010,04,05,10,54,8.10
2010,04,05,10,55,6.40
2010,04,05,10,56,8.10
2010,04,05,10,57,16.10
2010,04,05,10,58,11.30
2010,04,05,10,59,9.60
2010,04,05,11,00,11.30
2010,04,05,11,01,12.90
2010,04,05,11,02,4.80
2010,04,05,11,03,11.30
2010,04,05,11,04,9.60
2010,04,05,11,05,6.40
2010,04,05,11,06,12.90
2010,04,05,11,07,9.60
2010,04,05,11,08,9.60
2010,04,05,11,09,17.70
2010,04,05,11,10,17.70
2010,04,05,11,11,22.50
2010,04,05,11,12,19.30
2010,04,05,11,13,19.30
2010,04,05,11,14,19.30
2010,04,05,11,15,14.50
2010,04,05,11,16,11.30
2010,04,05,11,17,9.60
2010,04,05,11,18,17.70
2010,04,05,11,19,19.30
2010,04,05,11,20,14.50
2010,04,05,11,21,14.50
2010,04,05,11,22,11.30
2010,04,05,11,23,8.10
2010,04,05,11,24,11.30
2010,04,05,11,25,11.30
2010,04,05,11,26,9.60
2010,04,05,11,27,14.50
2010,04,05,11,28,17.70
2010,04,05,11,29,16.10
2010,04,05,11,30,14.50
2010,04,05,11,31,16.10
2010,04,05,11,32,16.10
2010,04,05,11,33,14.50
2010,04,05,11,34,19.30
2010,04,05,11,35,17.70
2010,04,05,11,36,17.70
2010,04,05,11,37,16.10
2010,04,05,11,38,16.10
2010,04,05,11,39,9.60
2010,04,05,11,40,6.40
2010,04,05,11,41,11.30
2010,04,05,11,42,9.60
2010,04,05,11,43,11.30
2010,04,05,11,44,11.30
2010,04,05,11,45,11.30
2010,04,05,11,46,6.40
2010,04,05,11,47,6.40
2010,04,05,11,48,8.10
2010,04,05,11,49,11.30
2010,04,05,11,50,16.10
2010,04,05,11,51,14.50
2010,04,05,11,52,17.70
2010,04,05,11,53,16.10
2010,04,05,11,54,19.30
2010,04,05,11,55,20.90
2010,04,05,11,56,20.90
2010,04,05,11,57,20.90
2010,04,05,11,58,17.70
2010,04,05,11,59,22.50
2010,04,05,12,00,22.50
2010,04,05,12,01,24.20
2010,04,05,12,02,19.30
2010,04,05,12,03,17.70
2010,04,05,12,04,14.50
2010,04,05,12,05,16.10
2010,04,05,12,06,16.10
2010,04,05,12,07,16.10
2010,04,05,12,08,20.90
2010,04,05,12,09,19.30
2010,04,05,12,10,16.10
2010,04,05,12,11,16.10
2010,04,05,12,12,16.10
2010,04,05,12,13,16.10
2010,04,05,12,14,19.30
2010,04,05,12,15,12.90
2010,04,05,12,16,17.70
2010,04,05,12,17,20.90
2010,04,05,12,18,17.70
2010,04,05,12,19,17.70
2010,04,05,12,20,16.10
2010,04,05,12,21,11.30
2010,04,05,12,22,17.70
2010,04,05,12,23,19.30
2010,04,05,12,24,16.10
2010,04,05,12,25,20.90
2010,04,05,12,26,19.30
2010,04,05,12,27,20.90
2010,04,05,12,28,22.50
2010,04,05,12,29,19.30
2010,04,05,12,30,17.70
2010,04,05,12,31,12.90
2010,04,05,12,32,17.70
2010,04,05,12,33,19.30
2010,04,05,12,34,14.50
2010,04,05,12,35,17.70
2010,04,05,12,36,9.60
2010,04,05,12,37,14.50
2010,04,05,12,38,14.50
2010,04,05,12,39,16.10
2010,04,05,12,40,17.70
2010,04,05,12,41,19.30
2010,04,05,12,42,17.70
2010,04,05,12,43,17.70
2010,04,05,12,44,9.60
2010,04,05,12,45,17.70
2010,04,05,12,46,24.20
2010,04,05,12,47,17.70
2010,04,05,12,48,17.70
2010,04,05,12,49,16.10
2010,04,05,12,50,9.60
2010,04,05,12,51,19.30
2010,04,05,12,52,17.70
2010,04,05,12,53,12.90
2010,04,05,12,54,17.70
2010,04,05,12,55,16.10
2010,04,05,12,56,17.70
2010,04,05,12,57,20.90
2010,04,05,12,58,25.70
2010,04,05,12,59,16.10
2010,04,05,13,00,20.90
2010,04,05,13,01,11.30
2010,04,05,13,02,20.90
2010,04,05,13,03,27.40
2010,04,05,13,04,24.20
2010,04,05,13,05,19.30
2010,04,05,13,06,24.20
2010,04,05,13,07,20.90
2010,04,05,13,08,17.70
2010,04,05,13,09,19.30
2010,04,05,13,10,24.20
2010,04,05,13,11,20.90
2010,04,05,13,12,17.70
2010,04,05,13,13,24.20
2010,04,05,13,14,16.10
2010,04,05,13,15,19.30
2010,04,05,13,16,17.70
2010,04,05,13,17,19.30
2010,04,05,13,18,22.50
2010,04,05,13,19,16.10
2010,04,05,13,20,19.30
2010,04,05,13,21,20.90
2010,04,05,13,22,20.90
2010,04,05,13,23,8.10
2010,04,05,13,24,17.70
2010,04,05,13,25,20.90
2010,04,05,13,26,20.90
2010,04,05,13,27,16.10
2010,04,05,13,28,17.70
2010,04,05,13,29,20.90
2010,04,05,13,30,19.30
2010,04,05,13,31,20.90
2010,04,05,13,32,19.30
2010,04,05,13,33,20.90
2010,04,05,13,34,12.90
2010,04,05,13,35,11.30
2010,04,05,13,36,6.40
2010,04,05,13,37,17.70
2010,04,05,13,38,19.30
2010,04,05,13,39,17.70
2010,04,05,13,40,19.30
2010,04,05,13,41,20.90
2010,04,05,13,42,19.30
2010,04,05,13,43,22.50
2010,04,05,13,44,19.30
2010,04,05,13,45,20.90
2010,04,05,13,46,25.70
2010,04,05,13,47,22.50
2010,04,05,13,48,24.20
2010,04,05,13,49,16.10
2010,04,05,13,50,19.30
2010,04,05,13,51,19.30
2010,04,05,13,52,19.30
2010,04,05,13,53,17.70
2010,04,05,13,54,17.70
2010,04,05,13,55,19.30
2010,04,05,13,56,20.90
2010,04,05,13,57,20.90
2010,04,05,13,58,17.70
2010,04,05,13,59,22.50
2010,04,05,14,00,20.90
2010,04,05,14,01,22.50
2010,04,05,14,02,20.90
2010,04,05,14,03,24.20
2010,04,05,14,04,30.60
2010,04,05,14,05,20.90
2010,04,05,14,06,25.70
2010,04,05,14,07,20.90
2010,04,05,14,08,24.20
2010,04,05,14,09,27.40
2010,04,05,14,10,25.70
2010,04,05,14,11,22.50
2010,04,05,14,12,22.50
2010,04,05,14,13,22.50
2010,04,05,14,14,20.90
2010,04,05,14,15,25.70
2010,04,05,14,16,16.10
2010,04,05,14,17,20.90
2010,04,05,14,18,25.70
2010,04,05,14,19,24.20
2010,04,05,14,20,20.90
2010,04,05,14,21,25.70
2010,04,05,14,22,22.50
2010,04,05,14,23,24.20
2010,04,05,14,24,25.70
2010,04,05,14,25,25.70
2010,04,05,14,26,25.70
2010,04,05,14,27,24.20
2010,04,05,14,28,19.30
2010,04,05,14,29,22.50
2010,04,05,14,30,30.60
2010,04,05,14,31,29.00
2010,04,05,14,32,27.40
2010,04,05,14,33,24.20
2010,04,05,14,34,19.30
2010,04,05,14,35,22.50
2010,04,05,14,36,25.70
2010,04,05,14,37,29.00
2010,04,05,14,38,24.20
2010,04,05,14,39,24.20
2010,04,05,14,40,29.00
2010,04,05,14,41,29.00
2010,04,05,14,42,22.50
2010,04,05,14,43,27.40
2010,04,05,14,44,37.00
2010,04,05,14,45,24.20
2010,04,05,14,46,27.40
2010,04,05,14,47,35.40
2010,04,05,14,48,27.40
2010,04,05,14,49,29.00
2010,04,05,14,50,25.70
2010,04,05,14,51,22.50
2010,04,05,14,52,30.60
2010,04,05,14,53,24.20
2010,04,05,14,54,29.00
2010,04,05,14,55,33.80
2010,04,05,14,56,17.70
2010,04,05,14,57,20.90
2010,04,05,14,58,14.50
2010,04,05,14,59,14.50
2010,04,05,15,00,14.50
2010,04,05,15,01,20.90
2010,04,05,15,02,19.30
2010,04,05,15,03,35.40
2010,04,05,15,04,27.40
2010,04,05,15,05,24.20
2010,04,05,15,06,24.20
2010,04,05,15,07,22.50
2010,04,05,15,08,16.10
2010,04,05,15,09,17.70
2010,04,05,15,10,29.00
2010,04,05,15,11,24.20
2010,04,05,15,12,19.30
2010,04,05,15,13,24.20
2010,04,05,15,14,25.70
2010,04,05,15,15,32.20
2010,04,05,15,16,27.40
2010,04,05,15,17,30.60
2010,04,05,15,18,24.20
2010,04,05,15,19,29.00
2010,04,05,15,20,30.60
2010,04,05,15,21,24.20
2010,04,05,15,22,27.40
2010,04,05,15,23,19.30
2010,04,05,15,24,22.50
2010,04,05,15,25,20.90
2010,04,05,15,26,17.70
2010,04,05,15,27,27.40
2010,04,05,15,28,30.60
2010,04,05,15,29,24.20
2010,04,05,15,30,20.90
2010,04,05,15,31,25.70
2010,04,05,15,32,22.50
2010,04,05,15,33,20.90
2010,04,05,15,34,16.10
2010,04,05,15,35,17.70
2010,04,05,15,36,25.70
2010,04,05,15,37,22.50
2010,04,05,15,38,22.50
2010,04,05,15,39,22.50
2010,04,05,15,40,29.00
2010,04,05,15,41,20.90
2010,04,05,15,42,22.50
2010,04,05,15,43,24.20
2010,04,05,15,44,25.70
2010,04,05,15,45,25.70
2010,04,05,15,46,20.90
2010,04,05,15,47,11.30
2010,04,05,15,48,22.50
2010,04,05,15,49,24.20
2010,04,05,15,50,24.20
2010,04,05,15,51,19.30
2010,04,05,15,52,22.50
2010,04,05,15,53,25.70
2010,04,05,15,54,29.00
2010,04,05,15,55,22.50
2010,04,05,15,56,20.90
2010,04,05,15,57,20.90
2010,04,05,15,58,19.30
2010,04,05,15,59,25.70
2010,04,05,16,00,24.20
2010,04,05,16,01,19.30
2010,04,05,16,02,24.20
2010,04,05,16,03,24.20
2010,04,05,16,04,24.20
2010,04,05,16,05,22.50
2010,04,05,16,06,25.70
2010,04,05,16,07,32.20
2010,04,05,16,08,33.80
2010,04,05,16,09,29.00
2010,04,05,16,10,32.20
2010,04,05,16,11,17.70
2010,04,05,16,12,32.20
2010,04,05,16,13,32.20
2010,04,05,16,14,35.40
2010,04,05,16,15,29.00
2010,04,05,16,16,32.20
2010,04,05,16,17,30.60
2010,04,05,16,18,24.20
2010,04,05,16,19,25.70
2010,04,05,16,20,20.90
2010,04,05,16,21,30.60
2010,04,05,16,22,27.40
2010,04,05,16,23,27.40
2010,04,05,16,24,19.30
2010,04,05,16,25,14.50
2010,04,05,16,26,35.40
2010,04,05,16,27,35.40
2010,04,05,16,28,29.00
2010,04,05,16,29,33.80
2010,04,05,16,30,25.70
2010,04,05,16,31,20.90
2010,04,05,16,32,19.30
2010,04,05,16,33,20.90
2010,04,05,16,34,33.80
2010,04,05,16,35,38.60
2010,04,05,16,36,29.00
2010,04,05,16,37,32.20
2010,04,05,16,38,29.00
2010,04,05,16,39,27.40
2010,04,05,16,40,30.60
2010,04,05,16,41,30.60
2010,04,05,16,42,25.70
2010,04,05,16,43,27.40
2010,04,05,16,44,32.20
2010,04,05,16,45,30.60
2010,04,05,16,46,33.80
2010,04,05,16,47,22.50
2010,04,05,16,48,25.70
2010,04,05,16,49,20.90
2010,04,05,16,50,27.40
2010,04,05,16,51,24.20
2010,04,05,16,52,17.70
2010,04,05,16,53,30.60
2010,04,05,16,54,20.90
2010,04,05,16,55,19.30
2010,04,05,16,56,22.50
2010,04,05,16,57,24.20
2010,04,05,16,58,24.20
2010,04,05,16,59,25.70
2010,04,05,17,00,20.90
2010,04,05,17,01,30.60
2010,04,05,17,02,27.40
2010,04,05,17,03,22.50
2010,04,05,17,04,12.90
2010,04,05,17,05,24.20
2010,04,05,17,06,32.20
2010,04,05,17,07,19.30
2010,04,05,17,08,16.10
2010,04,05,17,09,14.50
2010,04,05,17,10,12.90
2010,04,05,17,11,22.50
2010,04,05,17,12,22.50
2010,04,05,17,13,20.90
2010,04,05,17,14,17.70
2010,04,05,17,15,14.50
2010,04,05,17,16,17.70
2010,04,05,17,17,17.70
2010,04,05,17,18,16.10
2010,04,05,17,19,12.90
2010,04,05,17,20,20.90
2010,04,05,17,21,20.90
2010,04,05,17,22,16.10
2010,04,05,17,23,37.00